Feedback
Home > Rebate Center > Cooking > Range Hoods > Rebate Center: Depth: 33" - 35.9" Island Mount Range Hoods > Mounting Type: Island Mount > Depth: 33" - 35.9"
Expand Your Results
Remove Mounting Type:
Island Mount
Remove Depth:
33" - 35.9"
Refine Your Results

Are You a
Builder?

Contact us for
special pricing & volume discounts
Get Quote

Rebate Center: Depth: 33" - 35.9" Island Mount Range Hoods

Sort:
Displaying 1 - 20 of 25 Products
20 40 products per page
1 2

BlueStar Manhattan Series BSMNHTTNIBC

Brushed Copper Island Hood with 3-Speed Blower Options, Hidden Controls, Baffle Filters, Halogen Lamps and Top Discharge

BSMANHI24BC 24" Width 01/01/2016 - 12/31/2016 Save $500 Download
BSMANHI30BC 30" Width 01/01/2016 - 12/31/2016 Save $500 Download
BSMANHI36BC 36" Width 01/01/2016 - 12/31/2016 Save $500 Download
BSMANHI42BC 42" Width 01/01/2016 - 12/31/2016 Save $500 Download
BSMANHI48BC 48" Width 01/01/2016 - 12/31/2016 Save $500 Download
BSMANHI54BC 54" Width 01/01/2016 - 12/31/2016 Save $500 Download
BSMANHI60BC 60" Width 01/01/2016 - 12/31/2016 Save $500 Download
BSMANHI66BC 66" Width 01/01/2016 - 12/31/2016 Save $500 Download

Prizer Hoods Crescent Series CRESI

Island Chimney Range Hood with Optional Blowers, 3-Speed Fan Control, High-Heat Sensor, Halogen Lights, Handcrafted 16 Gauge Material and Baffle Filters

CRESI36SS 36" Width, Brushed Stainless Steel 01/01/2016 - 12/31/2016 Save $500 Download
CRESI42SS 42" Width, Brushed Stainless Steel 01/01/2016 - 12/31/2016 Save $500 Download
CRESI48SS 48" Width, Brushed Stainless Steel 01/01/2016 - 12/31/2016 Save $500 Download
CRESI54SS 54" Width, Brushed Stainless Steel 01/01/2016 - 12/31/2016 Save $500 Download
CRESI60SS 60" Width, Brushed Stainless Steel 01/01/2016 - 12/31/2016 Save $500 Download

Prizer Hoods Rectangular Series RECTI

Island Chimney Range Hood with Optional Blowers, 3-Speed Fan Control, High-Heat Sensor, Halogen Lights, Handcrafted 16 Gauge Material and Baffle Filters

RECTI48SS 48" Width, Brushed Stainless Steel 01/01/2016 - 12/31/2016 Save $500 Download
RECTI54SS 54" Width, Brushed Stainless Steel 01/01/2016 - 12/31/2016 Save $500 Download
RECTI60SS 60" Width, Brushed Stainless Steel 01/01/2016 - 12/31/2016 Save $500 Download

BlueStar Manhattan Series BSMNHTTNISS

Island Hood with 3-Speed Blower Options, 750 Color Options, Hidden Controls, Dishwasher Safe Baffle Filters, Halogen Lamps and Top Discharge

BSMANHI24SS 24" Width 01/01/2016 - 12/31/2016 Save $500 Download
BSMANHI30SS 30" Width 01/01/2016 - 12/31/2016 Save $500 Download
BSMANHI36SS 36" Width 01/01/2016 - 12/31/2016 Save $500 Download
BSMANHI42SS 42" Width 01/01/2016 - 12/31/2016 Save $500 Download
BSMANHI48SS 48" Width 01/01/2016 - 12/31/2016 Save $500 Download
BSMANHI54SS 54" Width 01/01/2016 - 12/31/2016 Save $500 Download
BSMANHI60SS 60" Width 01/01/2016 - 12/31/2016 Save $500 Download
BSMANHI66SS 66" Width 01/01/2016 - 12/31/2016 Save $500 Download

BlueStar Laramie Series BSLARAMIEIBC

Brushed Copper Island Hood with 3-Speed Blower Options, Hidden Controls, Baffle Filters and Halogen Lamps

BSLARAI30BC 30" Width 01/01/2016 - 12/31/2016 Save $500 Download
BSLARAI36BC 36" Width 01/01/2016 - 12/31/2016 Save $500 Download
BSLARAI42BC 42" Width 01/01/2016 - 12/31/2016 Save $500 Download
BSLARAI48BC 48" Width 01/01/2016 - 12/31/2016 Save $500 Download
BSLARAI54BC 54" Width 01/01/2016 - 12/31/2016 Save $500 Download
BSLARAI60BC 60" Width 01/01/2016 - 12/31/2016 Save $500 Download
BSLARAI66BC 66" Width 01/01/2016 - 12/31/2016 Save $500 Download

BlueStar Laredo Series BSLAREDOISS

Island Hood with 3-Speed Blower Options, 750 Color Options, Hidden Controls, Dishwasher Safe Baffle Filters and Halogen Lamps

BSLAREI30SS 30" Width 01/01/2016 - 12/31/2016 Save $500 Download
BSLAREI36SS 36" Width 01/01/2016 - 12/31/2016 Save $500 Download
BSLAREI42SS 42" Width 01/01/2016 - 12/31/2016 Save $500 Download
BSLAREI48SS 48" Width 01/01/2016 - 12/31/2016 Save $500 Download
BSLAREI54SS 54" Width 01/01/2016 - 12/31/2016 Save $500 Download
BSLAREI60SS 60" Width 01/01/2016 - 12/31/2016 Save $500 Download
BSLAREI66SS 66" Width 01/01/2016 - 12/31/2016 Save $500 Download

BlueStar Manhattan Series BSMNHTTNIBB

Brushed Brass Island Hood with 3-Speed Blower Options, Hidden Controls, Baffle Filters, Halogen Lamps and Top Discharge

BSMANHI24BB 24" Width 01/01/2016 - 12/31/2016 Save $500 Download
BSMANHI30BB 30" Width 01/01/2016 - 12/31/2016 Save $500 Download
BSMANHI36BB 36" Width 01/01/2016 - 12/31/2016 Save $500 Download
BSMANHI42BB 42" Width 01/01/2016 - 12/31/2016 Save $500 Download
BSMANHI48BB 48" Width 01/01/2016 - 12/31/2016 Save $500 Download
BSMANHI54BB 54" Width 01/01/2016 - 12/31/2016 Save $500 Download
BSMANHI60BB 60" Width 01/01/2016 - 12/31/2016 Save $500 Download
BSMANHI66BB 66" Width 01/01/2016 - 12/31/2016 Save $500 Download

Prizer Hoods Ponderosa Series PONDI

Island Range Hood with Optional Blowers, 3-Speed Fan Control, High-Heat Sensor, Halogen Lights, Handcrafted 16 Gauge Material and Baffle Filters

PONDI36SS 36" Width, Brushed Stainless Steel 01/01/2016 - 12/31/2016 Save $500 Download
PONDI42SS 42" Width, Brushed Stainless Steel 01/01/2016 - 12/31/2016 Save $500 Download
PONDI48SS 48" Width, Brushed Stainless Steel 01/01/2016 - 12/31/2016 Save $500 Download
PONDI54SS 54" Width, Brushed Stainless Steel 01/01/2016 - 12/31/2016 Save $500 Download
PONDI60SS 60" Width, Brushed Stainless Steel 01/01/2016 - 12/31/2016 Save $500 Download

BlueStar Laramie Series BSLARAMIEISS

Island Hood with 3-Speed Blower Options, 750 Color Options, Hidden Controls, Dishwasher Safe Baffle Filters and Halogen Lamps

BSLARAI30SS 30" Width 01/01/2016 - 12/31/2016 Save $500 Download
BSLARAI36SS 36" Width 01/01/2016 - 12/31/2016 Save $500 Download
BSLARAI42SS 42" Width 01/01/2016 - 12/31/2016 Save $500 Download
BSLARAI48SS 48" Width 01/01/2016 - 12/31/2016 Save $500 Download
BSLARAI54SS 54" Width 01/01/2016 - 12/31/2016 Save $500 Download
BSLARAI60SS 60" Width 01/01/2016 - 12/31/2016 Save $500 Download
BSLARAI66SS 66" Width 01/01/2016 - 12/31/2016 Save $500 Download

Prizer Hoods Manhattan Series MANHI

Island Chimney Range Hood with Optional Blowers, 3-Speed Fan Control, High-Heat Sensor, Halogen Lights, Handcrafted 16 Gauge Material and Baffle Filters

MANHI24SS 24" Width, Brushed Stainless Steel 01/01/2016 - 12/31/2016 Save $500 Download
MANHI30SS 30" Width, Brushed Stainless Steel 01/01/2016 - 12/31/2016 Save $500 Download
MANHI36SS 36" Width, Brushed Stainless Steel 01/01/2016 - 12/31/2016 Save $500 Download
MANHI42SS 42" Width, Brushed Stainless Steel 01/01/2016 - 12/31/2016 Save $500 Download
MANHI48SS 48" Width, Brushed Stainless Steel 01/01/2016 - 12/31/2016 Save $500 Download
MANHI54SS 54" Width, Brushed Stainless Steel 01/01/2016 - 12/31/2016 Save $500 Download
MANHI60SS 60" Width, Brushed Stainless Steel 01/01/2016 - 12/31/2016 Save $500 Download
MANHI66SS 66" Width, Brushed Stainless Steel 01/01/2016 - 12/31/2016 Save $500 Download

BlueStar Laredo Series BSLAREDOIBB

Brushed Brass Island Hood with 3-Speed Blower Options, Hidden Controls, Baffle Filters and Halogen Lamps

BSLAREI30BB 30" Width 01/01/2016 - 12/31/2016 Save $500 Download
BSLAREI36BB 36" Width 01/01/2016 - 12/31/2016 Save $500 Download
BSLAREI42BB 42" Width 01/01/2016 - 12/31/2016 Save $500 Download
BSLAREI48BB 48" Width 01/01/2016 - 12/31/2016 Save $500 Download
BSLAREI54BB 54" Width 01/01/2016 - 12/31/2016 Save $500 Download
BSLAREI60BB 60" Width 01/01/2016 - 12/31/2016 Save $500 Download
BSLAREI66BB 66" Width 01/01/2016 - 12/31/2016 Save $500 Download

BlueStar Hampton Series BSHAMPTONIBB

Brushed Brass Island Hood with 3-Speed Blower Options, Hidden Controls, Baffle Filters, Halogen Lamps and Top Exhaust

BSHAMPI30BB 30" Width 01/01/2016 - 12/31/2016 Save $500 Download
BSHAMPI36BB 36" Width 01/01/2016 - 12/31/2016 Save $500 Download
BSHAMPI42BB 42" Width 01/01/2016 - 12/31/2016 Save $500 Download
BSHAMPI48BB 48" Width 01/01/2016 - 12/31/2016 Save $500 Download
BSHAMPI54BB 54" Width 01/01/2016 - 12/31/2016 Save $500 Download
BSHAMPI60BB 60" Width 01/01/2016 - 12/31/2016 Save $500 Download
BSHAMPI66BB 66" Width 01/01/2016 - 12/31/2016 Save $500 Download

BlueStar Hampton Series BSHAMPTONIBC

Brushed Copper Island Hood with 3-Speed Blower Options, Hidden Controls, Baffle Filters, Halogen Lamps and Top Exhaust

BSHAMPI30BC 30" Width 01/01/2016 - 12/31/2016 Save $500 Download
BSHAMPI36BC 36" Width 01/01/2016 - 12/31/2016 Save $500 Download
BSHAMPI42BC 42" Width 01/01/2016 - 12/31/2016 Save $500 Download
BSHAMPI48BC 48" Width 01/01/2016 - 12/31/2016 Save $500 Download
BSHAMPI54BC 54" Width 01/01/2016 - 12/31/2016 Save $500 Download
BSHAMPI60BC 60" Width 01/01/2016 - 12/31/2016 Save $500 Download
BSHAMPI66BC 66" Width 01/01/2016 - 12/31/2016 Save $500 Download

Prizer Hoods Casino Royale Series CSNOI

Island Chimney Range Hood with Optional Blowers, 3-Speed Fan Control, High-Heat Sensor, Halogen Lights, Handcrafted 16 Gauge Material and Baffle Filters

CSNOI36SS 36" Width, Brushed Stainless Steel 01/01/2016 - 12/31/2016 Save $500 Download
CSNOI42SS 42" Width, Brushed Stainless Steel 01/01/2016 - 12/31/2016 Save $500 Download
CSNOI48SS 48" Width, Brushed Stainless Steel 01/01/2016 - 12/31/2016 Save $500 Download
CSNOI54SS 54" Width, Brushed Stainless Steel 01/01/2016 - 12/31/2016 Save $500 Download
CSNOI60SS 60" Width, Brushed Stainless Steel 01/01/2016 - 12/31/2016 Save $500 Download

BlueStar Laramie Series BSLARAMIEIBB

Brushed Brass Island Hood with 3-Speed Blower Options, Hidden Controls, Baffle Filters and Halogen Lamps

BSLARAI30BB 30" Width 01/01/2016 - 12/31/2016 Save $500 Download
BSLARAI36BB 36" Width 01/01/2016 - 12/31/2016 Save $500 Download
BSLARAI42BB 42" Width 01/01/2016 - 12/31/2016 Save $500 Download
BSLARAI48BB 48" Width 01/01/2016 - 12/31/2016 Save $500 Download
BSLARAI54BB 54" Width 01/01/2016 - 12/31/2016 Save $500 Download
BSLARAI60BB 60" Width 01/01/2016 - 12/31/2016 Save $500 Download
BSLARAI66BB 66" Width 01/01/2016 - 12/31/2016 Save $500 Download

BlueStar Laredo Series BSLAREDOIBC

Brushed Copper Island Hood with 3-Speed Blower Options, Hidden Controls, Baffle Filters and Halogen Lamps

BSLAREI30BC 30" Width 01/01/2016 - 12/31/2016 Save $500 Download
BSLAREI36BC 36" Width 01/01/2016 - 12/31/2016 Save $500 Download
BSLAREI42BC 42" Width 01/01/2016 - 12/31/2016 Save $500 Download
BSLAREI48BC 48" Width 01/01/2016 - 12/31/2016 Save $500 Download
BSLAREI54BC 54" Width 01/01/2016 - 12/31/2016 Save $500 Download
BSLAREI60BC 60" Width 01/01/2016 - 12/31/2016 Save $500 Download
BSLAREI66BC 66" Width 01/01/2016 - 12/31/2016 Save $500 Download

Prizer Hoods Laramie Series LARAI

Island Chimney Range Hood with Optional Blowers, 3-Speed Fan Control, High-Heat Sensor, Halogen Lights, Handcrafted 16 Gauge Material and Baffle Filters

LARAI30SS 30" Width, Brushed Stainless Steel 01/01/2016 - 12/31/2016 Save $500 Download
LARAI36SS 36" Width, Brushed Stainless Steel 01/01/2016 - 12/31/2016 Save $500 Download
LARAI42SS 42" Width, Brushed Stainless Steel 01/01/2016 - 12/31/2016 Save $500 Download
LARAI48SS 48" Width, Brushed Stainless Steel 01/01/2016 - 12/31/2016 Save $500 Download
LARAI54SS 54" Width, Brushed Stainless Steel 01/01/2016 - 12/31/2016 Save $500 Download
LARAI60SS 60" Width, Brushed Stainless Steel 01/01/2016 - 12/31/2016 Save $500 Download
LARAI66SS 66" Width, Brushed Stainless Steel 01/01/2016 - 12/31/2016 Save $500 Download

Prizer Hoods Pagoda Series PAGOI

Island Range Hood with Optional Blowers, 3-Speed Fan Control, High-Heat Sensor, Halogen Lights, Handcrafted 16 Gauge Material and Baffle Filters

PAGOI36SS 36" Width, Brushed Stainless Steel 01/01/2016 - 12/31/2016 Save $500 Download
PAGOI42SS 42" Width, Brushed Stainless Steel 01/01/2016 - 12/31/2016 Save $500 Download
PAGOI48SS 48" Width, Brushed Stainless Steel 01/01/2016 - 12/31/2016 Save $500 Download
PAGOI54SS 54" Width, Brushed Stainless Steel 01/01/2016 - 12/31/2016 Save $500 Download
PAGOI60SS 60" Width, Brushed Stainless Steel 01/01/2016 - 12/31/2016 Save $500 Download

Prizer Hoods Silverado Series SILVI

Island Chimney Range Hood with Optional Blowers, 3-Speed Fan Control, High-Heat Sensor, Halogen Lights, Handcrafted 16 Gauge Material and Baffle Filters

SILVI36SS 36" Width, Brushed Stainless Steel 01/01/2016 - 12/31/2016 Save $500 Download
SILVI42SS 42" Width, Brushed Stainless Steel 01/01/2016 - 12/31/2016 Save $500 Download
SILVI48SS 48" Width, Brushed Stainless Steel 01/01/2016 - 12/31/2016 Save $500 Download
SILVI54SS 54" Width, Brushed Stainless Steel 01/01/2016 - 12/31/2016 Save $500 Download
SILVI60SS 60" Width, Brushed Stainless Steel 01/01/2016 - 12/31/2016 Save $500 Download

Prizer Hoods Tahoe Series TAHOI

Island Chimney Range Hood with Optional Blowers, 3-Speed Fan Control, High-Heat Sensor, Halogen Lights, Handcrafted 16 Gauge Material and Baffle Filters

TAHOI36SS 36" Width, Brushed Stainless Steel 01/01/2016 - 12/31/2016 Save $500 Download
TAHOI42SS 42" Width, Brushed Stainless Steel 01/01/2016 - 12/31/2016 Save $500 Download
TAHOI48SS 48" Width, Brushed Stainless Steel 01/01/2016 - 12/31/2016 Save $500 Download
TAHOI54SS 54" Width, Brushed Stainless Steel 01/01/2016 - 12/31/2016 Save $500 Download
TAHOI60SS 60" Width, Brushed Stainless Steel 01/01/2016 - 12/31/2016 Save $500 Download
Sort:
Displaying 1 - 20 of 25 Products
20 40 products per page
1 2